This is the latest recevied weather packets stored in our database for station/object GW3ATZ-10. If no packets are shown the sender has not sent any weather packets the latest 10 day(s).
| Time | Temp. | Humidity | Pressure | Rain* | Wind** | Luminosity | Snow |
|---|---|---|---|---|---|---|---|
| 1777759534 | 16.67° C | 54% | 1013.2 hPa | - | - | - | - |
| 1777755977 | 17.22° C | 52% | 1013.5 hPa | - | - | - | - |
| 1777752369 | 17.22° C | 51% | 1013.9 hPa | - | - | - | - |
| 1777748761 | 17.78° C | 51% | 1014 hPa | - | - | - | - |
| 1777745153 | 17.78° C | 50% | 1013.9 hPa | - | - | - | - |
| 1777741544 | 17.78° C | 50% | 1014.2 hPa | - | - | - | - |
| 1777737935 | 17.78° C | 49% | 1014.3 hPa | - | - | - | - |
| 1777735662 | 17.78° C | 49% | 1014.8 hPa | - | - | - | - |
| 1777732054 | 17.78° C | 48% | 1015.6 hPa | - | - | - | - |
| 1777728445 | 18.33° C | 47% | 1016 hPa | - | - | - | - |
| 1777724837 | 18.33° C | 48% | 1016.7 hPa | - | - | - | - |
| 1777723555 | 17.78° C | 46% | 1017.1 hPa | - | - | - | - |
| 1777719947 | 19.44° C | 48% | 1017.6 hPa | - | - | - | - |
| 1777716339 | 19.44° C | 48% | 1017.8 hPa | - | - | - | - |
| 1777712778 | 18.33° C | 49% | 1018.5 hPa | - | - | - | - |
| 1777709169 | 17.22° C | 49% | 1018.6 hPa | - | - | - | - |
| 1777705561 | 14.44° C | 51% | 1018.9 hPa | - | - | - | - |
| 1777701953 | 13.89° C | 51% | 1018.8 hPa | - | - | - | - |
| 1777698345 | 14.44° C | 51% | 1018.6 hPa | - | - | - | - |
| 1777694737 | 15° C | 51% | 1018.5 hPa | - | - | - | - |
| 1777691175 | 15° C | 50% | 1018.8 hPa | - | - | - | - |
| 1777687567 | 15.56° C | 51% | 1019.1 hPa | - | - | - | - |
| 1777683958 | 15.56° C | 50% | 1019.6 hPa | - | - | - | - |
| 1777680349 | 16.11° C | 51% | 1020 hPa | - | - | - | - |
| 1777676741 | 16.11° C | 51% | 1020.2 hPa | - | - | - | - |
* Rain since midnight (hover to see other rain measurements)
** Current wind speed in m/s (hover to see current wind gust speed)